Temperature
3 4 4 4 4 4 4 5 5 5 5 5 5 5 4 4 4 4 4 4 4 4 4 4 4 4 4 4 4 4 4 4 3 3 3 3 3 3 3 4 4 4 4
3 3 3 3 4 4 4 4 4 4 4 4 4 4 4 4 4 4 3 3 3 3 3 3 3 3 3 3 3 3 3 3 3 3 3 3 3 3 3 3 3 3 3
2 2 3 3 3 4 4 4 4 4 4 4 4 3 3 3 3 3 3 3 3 3 3 3 3 3 3 3 3 3 3 3 3 3 2 2 2 2 2 2 2 2 3
2 2 2 2 3 3 3 3 3 3 3 3 3 3 3 3 3 2 2 2 2 2 2 2 2 2 2 3 2 2 2 2 2 2 2 2 2 2 2 2 2 2 2
1 1 1 2 2 2 2 3 3 3 3 3 3 3 3 2 2 2 2 2 2 2 2 2 2 2 2 2 2 2 2 2 2 1 1 1 1 1 1 1 1 1 1
1 1 1 1 1 1 2 2 2 2 2 2 2 2 2 2 2 2 2 1 1 1 1 1 2 2 2 2 2 2 2 1 1 1 1 0 0 1 1 0 0 0 0
0 0 0 1 1 1 1 1 2 2 2 2 2 2 1 1 1 1 1 1 1 1 1 1 1 1 1 1 1 1 1 1 1 1 1 0 0 0 0 0 -0 -0 -0
-0 -0 -0 -0 0 0 0 1 1 1 1 1 1 1 1 1 1 0 0 0 0 0 0 0 0 0 1 1 1 0 0 1 1 0 0 0 0 0 0 0 -0 -0 -0
-1 -1 -1 -1 -1 -0 -0 -0 -0 0 0 0 0 0 0 0 -0 -0 -0 -0 -1 -1 -0 -0 -0 -0 -0 -0 -0 -0 -0 -0 -0 -0 -0 -0 -0 -0 -0 -0 -1 -1 -1
-1 -1 -1 -1 -1 -1 -1 -1 -1 -1 -1 -1 -1 -0 -0 -1 -1 -1 -1 -1 -1 -1 -1 -1 -1 -1 -1 -1 -1 -1 -1 -1 -1 -1 -1 -1 -1 -1 -1 -1 -1 -1 -1
-1 -2 -2 -2 -2 -2 -2 -1 -1 -1 -1 -1 -1 -1 -1 -1 -1 -1 -1 -1 -1 -1 -2 -1 -1 -1 -1 -1 -1 -1 -1 -1 -1 -1 -1 -1 -1 -1 -1 -1 -1 -1 -1
-2 -2 -2 -2 -2 -2 -2 -2 -2 -2 -2 -2 -2 -2 -2 -2 -2 -2 -2 -2 -2 -2 -2 -2 -2 -2 -2 -2 -2 -2 -2 -2 -2 -2 -2 -2 -2 -2 -2 -1 -1 -1 -1
-2 -2 -2 -3 -3 -3 -3 -3 -3 -3 -3 -3 -2 -2 -2 -2 -2 -2 -2 -2 -2 -2 -2 -2 -2 -2 -2 -2 -2 -2 -2 -2 -2 -2 -2 -2 -2 -2 -2 -2 -2 -2 -2
-3 -3 -3 -3 -3 -3 -3 -3 -3 -3 -3 -3 -3 -3 -3 -3 -3 -3 -3 -3 -3 -2 -2 -2 -2 -3 -3 -3 -3 -3 -3 -3 -3 -3 -3 -3 -3 -3 -3 -2 -2 -2 -2
-3 -3 -3 -3 -4 -4 -4 -4 -4 -4 -4 -4 -3 -3 -3 -3 -3 -3 -3 -3 -3 -3 -3 -3 -3 -3 -3 -3 -3 -3 -3 -3 -3 -3 -3 -3 -3 -3 -3 -3 -3 -3 -3
-4 -4 -4 -4 -4 -4 -4 -4 -4 -4 -4 -4 -4 -4 -4 -3 -3 -3 -3 -3 -3 -3 -3 -3 -3 -3 -3 -3 -3 -3 -4 -4 -4 -4 -4 -4 -4 -4 -4 -3 -3 -3 -3
-4 -4 -4 -4 -4 -4 -5 -5 -5 -5 -5 -5 -4 -4 -4 -4 -4 -4 -4 -4 -3 -3 -3 -3 -4 -4 -4 -4 -4 -4 -4 -4 -4 -4 -4 -4 -4 -4 -4 -4 -4 -4 -4
-4 -4 -5 -5 -5 -5 -5 -5 -5 -5 -5 -5 -5 -5 -4 -4 -4 -4 -4 -4 -4 -4 -4 -4 -4 -4 -4 -4 -4 -4 -4 -4 -4 -4 -4 -4 -4 -5 -5 -4 -4 -4 -4
-5 -5 -5 -5 -5 -5 -5 -5 -5 -5 -5 -5 -5 -5 -5 -5 -5 -4 -4 -4 -4 -4 -4 -4 -4 -4 -4 -4 -4 -5 -5 -5 -5 -5 -5 -5 -5 -5 -5 -5 -5 -5 -5
-5 -5 -5 -5 -5 -6 -6 -6 -6 -6 -6 -6 -6 -5 -5 -5 -5 -5 -5 -5 -5 -5 -5 -5 -5 -5 -5 -5 -5 -5 -5 -5 -5 -5 -5 -5 -5 -5 -5 -5 -5 -5 -5
-6 -6 -6 -6 -6 -6 -6 -6 -6 -6 -6 -6 -6 -6 -6 -6 -5 -5 -5 -5 -5 -5 -5 -5 -5 -5 -5 -5 -5 -5 -5 -5 -5 -5 -5 -5 -5 -5 -5 -5 -5 -5 -5
-6 -6 -6 -6 -6 -6 -6 -6 -6 -6 -6 -6 -6 -6 -6 -6 -6 -6 -6 -5 -5 -5 -5 -5 -5 -5 -5 -5 -5 -5 -5 -5 -5 -5 -6 -6 -6 -6 -6 -6 -6 -6 -6
-7 -6 -6 -6 -6 -6 -6 -6 -6 -6 -7 -7 -6 -6 -6 -6 -6 -6 -6 -6 -6 -6 -6 -6 -6 -6 -6 -6 -6 -6 -6 -6 -6 -6 -6 -6 -6 -6 -6 -6 -6 -6 -6
-7 -7 -7 -7 -7 -7 -7 -7 -7 -7 -7 -7 -7 -7 -7 -7 -7 -6 -6 -6 -6 -6 -6 -6 -6 -6 -6 -6 -6 -6 -6 -6 -6 -6 -6 -6 -6 -6 -6 -6 -6 -6 -6
-7 -7 -7 -7 -7 -7 -7 -7 -7 -7 -7 -7 -7 -7 -7 -7 -7 -7 -7 -7 -7 -7 -7 -7 -7 -6 -6 -6 -6 -6 -6 -6 -6 -6 -6 -6 -6 -6 -6 -6 -6 -6 -6
-7 -7 -7 -7 -7 -7 -7 -7 -7 -7 -7 -7 -7 -7 -7 -7 -7 -7 -7 -7 -7 -7 -7 -7 -7 -7 -7 -7 -7 -7 -7 -7 -7 -7 -7 -7 -7 -7 -7 -7 -7 -7 -7
Wind_Speed
4 4 4 4 5 5 5 6 5 5 6 5 6 5 5 5 5 5 4 5 5 5 4 5 5 4 3 3 3 3 4 4 4 4 3 3 4 4 4 4 5 5 5
5 4 4 4 4 4 4 5 5 5 5 5 5 5 5 5 5 5 5 5 5 5 5 5 5 4 4 3 3 4 4 4 4 5 4 3 4 4 4 4 4 5 5
5 4 4 4 4 4 4 4 5 5 5 5 5 5 5 5 5 5 5 5 5 5 5 5 5 5 5 4 4 4 3 3 4 4 4 3 3 3 4 4 4 4 5
5 4 4 4 4 3 4 4 4 4 4 5 5 5 5 5 4 4 4 5 5 4 4 5 5 6 6 5 4 5 4 3 3 3 4 3 3 3 3 3 4 4 4
5 4 4 4 3 3 3 3 3 3 4 4 4 4 4 4 4 4 4 4 4 4 3 4 4 5 5 5 4 4 4 3 3 3 4 3 3 3 3 3 4 4 4
4 5 4 4 3 3 2 2 2 2 3 4 4 4 4 4 5 6 5 4 4 4 4 3 3 4 5 5 6 5 5 5 5 4 4 5 5 4 4 3 3 4 4
4 4 4 4 3 2 2 2 2 2 3 3 4 4 4 4 5 6 5 4 4 4 4 4 3 3 4 4 4 4 4 5 5 5 6 6 6 5 4 4 4 5 5
3 4 4 4 4 3 2 2 2 2 3 3 4 4 4 4 5 5 5 4 3 4 4 4 4 4 3 3 3 3 3 4 4 4 5 6 6 5 5 5 5 5 5
3 4 4 4 4 3 3 3 3 3 3 3 3 4 4 4 5 6 4 3 3 4 4 4 4 4 4 4 3 3 3 3 2 3 4 5 5 5 4 3 3 3 4
4 4 4 4 4 4 3 4 3 3 3 3 3 4 4 4 5 6 5 3 3 3 3 3 4 4 4 4 4 4 4 4 3 3 3 4 4 3 3 4 4 4 3
4 3 3 3 4 4 3 3 3 3 3 3 3 3 4 4 5 5 5 3 4 3 3 3 3 4 4 4 4 4 4 4 4 3 3 3 3 3 3 3 3 3 4
3 3 3 3 3 3 3 3 2 2 3 3 2 2 2 3 4 5 5 4 4 4 3 3 3 4 4 4 3 3 3 3 3 3 3 3 3 3 3 3 3 4 4
3 3 3 3 3 2 3 2 2 2 2 2 2 2 2 2 3 4 5 4 4 3 3 4 4 4 4 3 3 3 3 3 2 3 3 3 3 3 2 2 3 3 3
3 3 3 3 3 2 2 2 2 2 2 2 3 3 2 2 2 2 3 3 3 3 2 3 4 4 3 2 2 2 2 2 3 3 3 3 2 2 2 2 2 2 2
3 3 3 3 3 2 2 2 3 3 3 3 3 3 3 3 3 3 3 3 3 3 2 2 2 3 3 2 2 2 2 2 3 3 3 2 2 2 2 2 2 2 2
3 3 2 2 2 2 2 2 2 3 4 5 5 4 3 3 3 3 4 4 3 3 3 3 3 3 3 3 3 2 2 2 3 3 3 2 2 2 2 2 2 2 3
4 3 3 3 2 2 2 2 3 3 2 3 4 4 4 4 4 3 3 3 3 4 3 3 3 3 3 3 3 3 3 3 3 3 3 3 2 2 2 2 2 2 3
4 4 3 3 3 3 3 3 3 3 3 2 3 3 3 3 4 3 3 3 3 3 3 3 3 3 3 3 3 3 3 3 3 3 3 3 2 2 2 3 3 3 3
4 3 3 3 3 3 3 3 3 3 3 3 2 2 2 2 2 2 3 3 3 3 3 3 3 3 3 3 3 3 3 3 3 3 3 3 3 3 3 3 3 3 4
4 4 3 3 3 3 3 3 3 3 3 3 3 2 2 2 2 2 2 2 3 3 3 3 3 3 3 3 3 3 3 3 3 3 3 3 3 3 3 3 3 3 3
3 3 3 3 3 3 3 3 3 3 3 3 3 3 3 3 3 3 2 2 3 3 3 3 3 3 3 3 3 4 4 4 3 3 3 3 3 3 3 3 3 3 3
3 3 3 3 3 3 3 3 3 3 3 3 3 3 4 3 3 3 3 3 3 3 3 3 3 3 3 4 4 4 4 4 3 3 3 2 2 2 3 3 3 3 2
3 3 3 3 2 3 3 2 2 3 3 3 3 3 3 3 3 3 3 3 2 2 3 3 3 3 3 4 4 4 4 4 4 4 3 3 3 3 3 3 3 3 3
3 3 3 3 2 2 2 2 2 2 2 3 3 3 3 3 3 3 3 3 3 3 3 3 3 4 4 4 4 4 5 5 5 5 4 4 3 3 3 3 3 3 3
3 3 3 3 2 2 2 2 2 2 2 2 2 2 3 3 3 3 3 3 3 3 4 4 4 4 5 5 5 4 5 5 6 5 4 4 4 3 3 3 3 3 2
3 3 3 2 2 2 2 2 2 2 3 2 3 3 3 3 3 3 3 3 3 3 3 4 4 5 5 5 5 5 6 6 6 6 5 4 4 3 3 3 3 3 2
Wind_Direction
303 295 277 262 252 244 234 225 223 222 213 211 201 192 195 195 193 196 202 202 208 208 209 212 218 219 220 224 234 238 245 242 250 265 264 262 269 277 279 279 278 274 270
315 305 292 275 258 248 240 230 224 219 211 206 198 194 197 198 199 201 200 206 211 212 211 212 217 219 221 226 229 239 244 246 242 251 262 265 272 276 280 281 281 277 280
321 313 306 285 262 249 241 232 223 210 204 201 196 195 199 200 202 208 205 206 211 214 214 216 219 219 224 226 231 237 250 251 244 240 256 266 272 280 287 291 290 282 284
325 317 313 299 276 258 244 232 216 206 201 203 198 197 199 195 199 205 204 206 210 213 218 223 225 223 224 228 232 236 243 246 239 238 249 260 272 284 285 294 295 292 288
322 321 316 313 292 271 251 231 211 206 207 205 194 192 196 196 199 199 203 208 212 218 225 229 232 231 236 238 237 234 234 242 240 238 244 258 265 281 281 290 289 292 291
319 322 322 321 306 285 269 244 211 210 213 207 199 196 199 202 196 199 204 209 215 220 226 234 237 229 228 234 239 240 238 233 238 241 245 250 259 268 276 278 282 288 292
314 322 327 325 319 296 286 259 229 221 215 211 206 204 207 204 197 196 195 204 215 224 229 233 240 240 235 237 231 233 246 246 239 242 249 249 255 258 260 268 271 280 286
313 322 323 320 317 301 283 266 248 233 223 219 215 209 211 201 194 195 194 204 211 224 230 231 234 235 236 238 240 245 255 259 255 251 252 260 261 262 257 259 266 279 289
307 312 314 310 309 306 276 263 257 244 235 229 226 212 211 205 196 195 199 202 210 224 231 232 232 231 226 229 233 240 253 269 275 262 268 273 276 268 268 261 260 266 285
297 301 303 303 300 296 286 264 251 242 239 233 231 219 215 216 208 202 203 205 210 219 222 224 224 228 228 235 239 240 251 267 274 273 272 270 269 260 251 248 247 252 275
300 303 302 303 298 295 293 279 257 242 233 234 233 224 219 220 212 204 207 211 211 214 220 224 225 218 229 239 251 252 256 268 268 264 267 271 273 267 261 265 263 254 259
299 298 297 297 299 295 290 287 271 252 236 234 233 230 224 221 223 211 211 220 224 218 224 226 223 215 227 242 249 256 263 272 263 263 268 272 274 272 274 279 279 279 274
287 288 292 298 299 290 280 281 277 263 246 236 230 232 228 220 215 212 209 212 219 227 226 217 218 221 231 234 227 235 245 254 254 256 263 269 275 278 279 282 289 289 292
276 282 287 294 297 288 281 277 268 259 250 240 236 235 237 230 220 214 212 208 203 218 220 205 207 214 225 232 233 236 242 244 250 255 261 269 279 281 284 294 297 294 297
269 273 277 280 285 285 284 275 269 266 263 258 250 245 237 238 242 240 228 221 215 214 207 213 216 217 223 229 239 248 250 246 250 259 261 264 271 274 286 295 303 295 287
261 264 267 272 279 285 287 300 312 281 288 282 275 266 265 261 252 240 226 217 209 202 206 209 215 222 222 222 227 237 249 253 252 255 257 257 262 269 281 291 288 279 283
253 258 262 263 265 270 273 278 296 310 296 284 277 271 263 256 251 246 227 210 207 205 212 215 218 223 225 225 227 235 248 255 252 249 251 255 258 263 271 279 278 275 279
252 255 255 256 259 260 261 263 267 279 291 295 293 277 266 257 253 244 226 214 217 218 223 224 227 231 231 232 232 234 241 250 248 244 244 246 246 251 260 268 271 279 284
248 248 250 253 254 255 258 259 258 261 266 276 287 279 273 267 256 244 216 221 220 224 225 228 230 233 235 236 237 237 237 246 249 242 237 238 240 242 250 260 267 277 279
246 248 251 249 249 250 252 251 251 253 254 255 263 270 267 258 249 247 238 233 233 231 231 233 234 237 237 235 234 234 236 246 246 241 239 239 240 244 246 250 258 267 273
248 241 243 246 244 245 247 249 249 248 249 250 257 258 255 249 245 247 250 249 243 239 236 238 241 244 246 242 235 230 236 244 239 238 241 242 241 245 251 255 259 260 271
240 238 235 238 242 247 253 253 252 251 247 248 258 256 250 251 248 248 251 252 252 253 245 239 241 245 244 243 237 232 235 238 237 237 242 246 249 251 250 249 259 264 268
233 235 238 241 246 251 261 262 258 251 244 245 248 249 247 249 251 252 254 257 257 253 247 242 244 246 246 242 236 232 233 235 235 236 239 242 245 247 249 251 255 262 265
228 229 233 238 242 247 255 262 262 258 248 243 242 245 247 251 253 257 260 259 258 254 252 250 248 250 253 254 249 245 242 242 243 239 232 231 239 244 248 256 260 263 264
228 226 226 227 231 237 246 253 254 254 250 248 248 251 253 255 258 262 263 263 264 259 257 255 251 248 250 255 254 251 248 246 248 248 239 226 228 235 239 248 252 259 267
226 225 225 226 230 234 238 247 252 252 249 250 251 254 255 258 261 265 267 264 264 265 261 255 253 252 254 256 257 259 256 250 246 243 240 226 222 226 228 236 245 249 254
Height
1470 1470 1469 1469 1469 1470 1470 1471 1472 1473 1473 1474 1475 1477 1478 1479 1480 1480 1481 1482 1483 1485 1485 1486 1487 1488 1488 1489 1489 1490 1491 1491 1490 1489 1489 1489 1488 1488 1487 1486 1485 1484 1483
1467 1466 1465 1465 1465 1465 1466 1466 1468 1468 1469 1470 1471 1472 1474 1475 1476 1476 1477 1479 1480 1480 1481 1482 1483 1484 1485 1485 1485 1486 1486 1487 1486 1485 1485 1484 1484 1484 1483 1482 1481 1480 1479
1464 1463 1461 1461 1460 1460 1461 1462 1463 1464 1465 1466 1467 1469 1470 1471 1472 1473 1473 1474 1475 1476 1477 1478 1479 1480 1480 1481 1481 1481 1482 1482 1482 1481 1480 1480 1480 1479 1479 1478 1477 1476 1475
1462 1460 1458 1457 1456 1456 1457 1458 1459 1460 1461 1462 1463 1465 1466 1467 1468 1469 1470 1470 1471 1472 1473 1474 1475 1476 1476 1477 1477 1477 1477 1477 1477 1477 1477 1476 1476 1475 1475 1473 1473 1472 1471
1459 1458 1456 1454 1453 1453 1453 1454 1455 1456 1457 1458 1460 1461 1462 1463 1464 1465 1465 1466 1467 1468 1469 1470 1471 1472 1472 1473 1473 1473 1473 1473 1473 1473 1473 1472 1472 1471 1471 1470 1469 1468 1467
1457 1455 1453 1452 1451 1450 1450 1451 1451 1452 1453 1454 1456 1457 1458 1459 1460 1461 1462 1463 1463 1464 1465 1466 1467 1467 1468 1468 1469 1469 1469 1469 1469 1469 1468 1468 1468 1468 1467 1467 1466 1465 1463
1455 1453 1451 1449 1448 1448 1448 1448 1448 1449 1450 1451 1452 1453 1454 1455 1456 1457 1458 1459 1459 1460 1461 1462 1462 1463 1464 1464 1464 1464 1464 1465 1465 1465 1465 1464 1464 1464 1464 1463 1463 1462 1460
1452 1450 1448 1447 1446 1445 1445 1445 1445 1446 1446 1447 1448 1449 1450 1451 1452 1453 1454 1455 1456 1457 1457 1458 1458 1459 1460 1460 1460 1460 1460 1460 1461 1461 1461 1461 1461 1461 1461 1460 1459 1458 1457
1449 1448 1447 1445 1444 1443 1443 1443 1443 1443 1443 1444 1444 1445 1446 1447 1448 1450 1451 1451 1452 1453 1453 1454 1455 1455 1456 1456 1457 1456 1456 1457 1457 1457 1457 1457 1457 1457 1457 1457 1456 1455 1453
1447 1446 1445 1443 1442 1441 1440 1440 1441 1441 1441 1441 1441 1442 1442 1443 1445 1446 1447 1448 1448 1449 1450 1450 1451 1452 1452 1453 1453 1453 1452 1452 1453 1453 1453 1454 1454 1453 1453 1453 1452 1451 1450
1445 1444 1443 1441 1440 1439 1438 1438 1438 1438 1438 1437 1437 1438 1439 1440 1441 1442 1444 1444 1445 1445 1446 1447 1448 1448 1449 1449 1449 1449 1449 1450 1450 1450 1450 1450 1450 1449 1449 1448 1448 1448 1447
1443 1442 1440 1439 1438 1436 1436 1435 1435 1435 1434 1434 1434 1434 1435 1436 1438 1439 1440 1441 1441 1442 1442 1443 1444 1445 1445 1446 1446 1446 1447 1447 1447 1447 1446 1446 1446 1445 1445 1445 1445 1444 1444
1440 1439 1438 1437 1435 1434 1433 1432 1432 1432 1431 1431 1431 1431 1432 1433 1434 1435 1436 1437 1438 1439 1439 1440 1441 1441 1442 1442 1443 1443 1443 1444 1444 1443 1443 1442 1443 1442 1441 1441 1441 1441 1440
1437 1436 1435 1434 1433 1432 1431 1430 1429 1429 1429 1428 1428 1428 1429 1430 1430 1431 1432 1433 1434 1435 1436 1437 1437 1438 1439 1439 1439 1439 1440 1440 1440 1440 1440 1439 1440 1439 1439 1438 1438 1437 1436
1434 1433 1432 1431 1430 1429 1428 1428 1427 1427 1427 1426 1426 1426 1426 1426 1427 1429 1429 1430 1431 1432 1433 1433 1434 1434 1435 1435 1436 1436 1436 1437 1437 1437 1437 1436 1436 1436 1436 1435 1435 1434 1433
1431 1430 1430 1429 1428 1427 1426 1425 1425 1424 1424 1424 1424 1424 1424 1425 1425 1425 1426 1427 1428 1429 1430 1430 1430 1431 1431 1432 1432 1432 1433 1433 1433 1433 1433 1433 1433 1432 1432 1432 1432 1431 1431
1428 1427 1426 1426 1425 1425 1424 1423 1422 1422 1421 1421 1421 1421 1421 1421 1422 1422 1423 1424 1425 1426 1427 1427 1427 1427 1428 1428 1429 1429 1429 1430 1430 1430 1430 1430 1429 1429 1429 1429 1428 1428 1428
1425 1424 1423 1423 1422 1422 1421 1420 1420 1419 1418 1418 1418 1418 1418 1419 1419 1419 1420 1421 1422 1422 1423 1423 1424 1424 1424 1425 1425 1425 1426 1426 1426 1426 1426 1426 1426 1426 1426 1426 1425 1425 1425
1421 1420 1420 1419 1419 1418 1418 1417 1417 1416 1416 1415 1415 1415 1416 1416 1416 1417 1417 1418 1418 1419 1419 1420 1420 1421 1421 1421 1422 1422 1422 1422 1423 1423 1423 1423 1423 1423 1423 1423 1423 1422 1422
1417 1417 1416 1416 1415 1415 1415 1414 1414 1413 1413 1413 1413 1413 1413 1413 1413 1413 1413 1414 1415 1415 1416 1416 1417 1417 1417 1417 1418 1418 1418 1419 1419 1419 1419 1420 1420 1420 1420 1420 1420 1419 1419
1414 1413 1413 1413 1412 1412 1412 1411 1411 1410 1410 1410 1410 1410 1411 1410 1410 1410 1410 1411 1411 1412 1412 1413 1413 1413 1414 1414 1414 1414 1415 1415 1415 1416 1416 1416 1417 1417 1417 1417 1417 1416 1416
1410 1410 1409 1409 1409 1409 1409 1408 1408 1407 1407 1407 1407 1407 1407 1408 1407 1407 1407 1408 1408 1408 1409 1409 1409 1410 1410 1410 1410 1410 1411 1411 1411 1412 1412 1413 1413 1414 1414 1414 1414 1414 1413
1407 1407 1406 1406 1406 1406 1406 1405 1405 1404 1404 1404 1404 1404 1404 1404 1404 1404 1405 1405 1405 1405 1405 1405 1406 1406 1406 1405 1406 1406 1407 1407 1408 1408 1409 1410 1410 1411 1411 1411 1411 1411 1410
1404 1404 1404 1404 1403 1403 1403 1402 1402 1402 1401 1401 1401 1401 1401 1401 1401 1401 1401 1402 1402 1402 1402 1402 1402 1402 1402 1402 1402 1403 1403 1404 1405 1405 1406 1407 1407 1407 1408 1408 1408 1408 1408
1401 1401 1401 1400 1400 1400 1400 1400 1399 1399 1399 1398 1398 1398 1398 1398 1398 1398 1398 1398 1398 1398 1398 1399 1399 1399 1399 1399 1399 1399 1400 1401 1401 1402 1402 1403 1404 1404 1405 1405 1405 1406 1406
1398 1397 1397 1397 1397 1397 1397 1397 1396 1396 1396 1396 1396 1396 1396 1395 1395 1395 1395 1395 1395 1395 1395 1395 1395 1395 1395 1395 1395 1396 1396 1397 1398 1399 1399 1400 1400 1401 1402 1402 1403 1403 1403